Danbury, CT

1:16 PM EDT on March 30, 2017 (GMT -0400)
Danbury Municipal

Weather History for KDXR - December, 2000

Change the Weather History Date:

Tuesday, December 5, 2000

  Actual Average Record
Temperature  
Mean Temperature 30 °F -  
Max Temperature 44 °F 41 °F 64 °F (2001)
Min Temperature 17 °F 24 °F 9 °F (1976)
Degree Days  
Heating Degree Days 34    
Moisture  
Dew Point 16 °F    
Average Humidity 56    
Maximum Humidity 92    
Minimum Humidity 31    
Precipitation  
Precipitation 0.00 in - - ()
Sea Level Pressure  
Sea Level Pressure 29.98 in    
Wind  
Wind Speed 4 mph (WSW)    
Max Wind Speed 15 mph    
Max Gust Speed 25 mph    
Visibility 10 miles    
Events Snow    
Averages and records for this station are not official NWS values.
T = Trace of Precipitation, MM = Missing Value Source: NWS Daily Summary

Daily Weather History Graph

Daily Weather History Graph

Search for Another Location

Airport or City:

Trip Planner

Search our weather history database for the weather conditions in past years. The results will help you decide how hot, cold, wet, or windy it might be!

Date:

Astronomy

Dec. 05, 2000 Rise Set
Actual Time 7:04 AM EST 4:24 PM EST
Civil Twilight 6:33 AM EST 4:55 PM EST
Nautical Twilight 5:59 AM EST 5:30 PM EST
Astronomical Twilight 5:25 AM EST 6:03 PM EST
Moon 1:24 PM EST (12/5) 12:24 AM EST (12/5)
Length of Visible Light 10h 21m
Length of Day
9h 19m
Waxing Gibbous, 65% of the Moon is Illuminated
Dec 5
Waxing Gibbous
Dec 11
Full
Dec 17
Last Quarter
Dec 25
New
Jan 2
First Quarter

Hourly Weather History & Observations

Time (EST) Temp. Windchill Dew Point Humidity Pressure Visibility Wind Dir Wind Speed Gust Speed Precip Events Conditions
12:53 AM 17.1 °F - 14.0 °F 88% 30.16 in 10.0 mi Calm Calm - N/A   Clear
1:53 AM 17.1 °F - 14.0 °F 88% 30.14 in 10.0 mi Calm Calm - N/A   Clear
2:53 AM 19.0 °F - 15.1 °F 85% 30.12 in 10.0 mi Calm Calm - N/A   Clear
3:53 AM 19.0 °F - 17.1 °F 92% 30.11 in 10.0 mi Calm Calm - N/A   Clear
4:53 AM 21.0 °F - 17.1 °F 85% 30.09 in 10.0 mi Calm Calm - N/A   Clear
5:53 AM 21.9 °F - 18.0 °F 85% 30.08 in 10.0 mi Calm Calm - N/A   Clear
6:53 AM 21.9 °F - 18.0 °F 85% 30.05 in 10.0 mi Calm Calm - N/A   Clear
7:53 AM 23.0 °F - 19.9 °F 88% 30.04 in 9.0 mi Calm Calm - N/A   Clear
8:53 AM 35.1 °F 31.0 °F 12.9 °F 40% 30.00 in 10.0 mi South 4.6 mph - N/A   Clear
9:53 AM 37.9 °F 32.7 °F 15.1 °F 39% 29.97 in 10.0 mi Variable 6.9 mph - N/A   Partly Cloudy
10:53 AM 39.9 °F 34.5 °F 15.1 °F 36% 29.94 in 10.0 mi SW 8.1 mph - N/A   Scattered Clouds
11:44 AM 42.8 °F 39.3 °F 15.8 °F 34% 29.89 in 10.0 mi SW 5.8 mph - N/A   Mostly Cloudy
11:53 AM 43.0 °F 39.5 °F 16.0 °F 34% 29.90 in 10.0 mi South 5.8 mph - N/A   Mostly Cloudy
12:53 PM 44.1 °F 37.7 °F 16.0 °F 32% 29.86 in 10.0 mi SSW 12.7 mph 20.7 mph N/A   Clear
1:53 PM 44.1 °F 37.7 °F 15.1 °F 31% 29.85 in 10.0 mi SW 12.7 mph - N/A   Clear
2:53 PM 43.0 °F 36.0 °F 19.0 °F 38% 29.86 in 10.0 mi West 13.8 mph 23.0 mph N/A   Mostly Cloudy
3:53 PM 41.0 °F 36.4 °F 18.0 °F 40% 29.88 in 10.0 mi West 6.9 mph - N/A   Mostly Cloudy
4:53 PM 37.9 °F 30.9 °F 19.9 °F 48% 29.87 in 10.0 mi SW 10.4 mph - N/A   Partly Cloudy
5:53 PM 37.0 °F 30.4 °F 21.9 °F 54% 29.88 in 10.0 mi SW 9.2 mph - N/A   Scattered Clouds
6:53 PM 37.0 °F 28.5 °F 21.9 °F 54% 29.89 in 10.0 mi WSW 13.8 mph 21.9 mph 0.00 in Snow Light Snow
7:53 PM 36.0 °F 26.7 °F 21.0 °F 55% 29.92 in 10.0 mi West 15.0 mph 24.2 mph 0.00 in   Scattered Clouds
8:53 PM 34.0 °F 25.0 °F 14.0 °F 44% 29.94 in 10.0 mi West 12.7 mph 25.3 mph N/A   Scattered Clouds
9:53 PM 30.9 °F 20.2 °F 9.0 °F 40% 29.99 in 10.0 mi West 15.0 mph 23.0 mph N/A   Clear
10:53 PM 28.9 °F 17.7 °F 9.0 °F 43% 30.02 in 10.0 mi WNW 15.0 mph 19.6 mph N/A   Mostly Cloudy
11:53 PM 28.0 °F 18.1 °F 3.9 °F 36% 30.04 in 10.0 mi WNW 11.5 mph 24.2 mph N/A   Partly Cloudy